Weather History for Hurlburt Field, FL

Change the Weather History Date:

Tuesday, October 19, 2010

  Actual Average Record
Temperature  
Mean Temperature 66 °F -  
Max Temperature 81 °F 75 °F 85 °F (2006)
Min Temperature 52 °F 57 °F 42 °F (1996)
Cooling Degree Days 2    
Growing Degree Days 16 (Base 50)    
Moisture  
Dew Point 59 °F    
Average Humidity 72    
Maximum Humidity 98    
Minimum Humidity 45    
Precipitation  
Precipitation 0.00 in - - ()
Sea Level Pressure  
Sea Level Pressure 29.97 in    
Wind  
Wind Speed 6 mph (NW)    
Max Wind Speed 12 mph    
Max Gust Speed -    
Visibility 10 miles    
Events Rain    
Averages and records for this station are not official NWS values.
T = Trace of Precipitation, MM = Missing Value Source: NWS Daily Summary

Daily Weather History Graph

Daily Weather History Graph

Search for Another Location

Airport:

Trip Planner

Search our weather history database for the weather conditions in past years. The results will help you decide how hot, cold, wet, or windy it might be!

Date:

Astronomy

Oct. 19, 2010 Rise Set
Actual Time 6:51 AM CDT 6:11 PM CDT
Civil Twilight 6:27 AM CDT 6:35 PM CDT
Nautical Twilight 5:59 AM CDT 7:03 PM CDT
Astronomical Twilight 5:31 AM CDT 7:31 PM CDT
Moon 4:11 PM CDT (10/19) 3:48 AM CDT (10/19)
Length of Visible Light 12h 08m
Length of Day
11h 19m
Waxing Gibbous, 90% of the Moon is Illuminated
Oct 19
Waxing Gibbous
Oct 22
Full
Oct 30
Last Quarter
Nov 5
New
Nov 13
First Quarter

Hourly Weather History & Observations

Time (CDT) Temp. Heat Index Dew Point Humidity Pressure Visibility Wind Dir Wind Speed Gust Speed Precip Events Conditions
12:55 AM 56.7 °F - 55.2 °F 95% 29.98 in 10.0 mi North 4.6 mph - N/A   Clear
1:55 AM 55.8 °F - 54.5 °F 96% 29.97 in 10.0 mi North 4.6 mph - N/A   Clear
2:55 AM 54.1 °F - 53.1 °F 96% 29.96 in 10.0 mi North 5.8 mph - N/A   Clear
3:55 AM 54.5 °F - 53.8 °F 97% 29.96 in 10.0 mi North 5.8 mph - N/A   Clear
4:55 AM 54.1 °F - 53.2 °F 97% 29.98 in 10.0 mi North 3.5 mph - N/A   Clear
5:55 AM 52.7 °F - 51.8 °F 97% 29.99 in 10.0 mi North 5.8 mph - N/A   Clear
6:55 AM 52.5 °F - 51.8 °F 97% 30.00 in 10.0 mi North 5.8 mph - N/A   Clear
6:59 AM 53.6 °F - 51.8 °F 94% 30.00 in 10.0 mi North 5.8 mph - N/A   Clear
7:55 AM 59.4 °F - 58.8 °F 98% 30.00 in 10.0 mi North 4.6 mph - N/A   Clear
7:56 AM 59.4 °F - 58.8 °F 98% 29.99 in 10.0 mi North 4.6 mph - N/A   Clear
8:55 AM - - - N/A% - - North - - N/A   Unknown
8:58 AM 64.4 °F - 59.0 °F 83% 29.99 in 7.0 mi NNW 5.8 mph - N/A   Clear
9:55 AM 75.2 °F - 60.4 °F 60% 30.01 in 10.0 mi NNW 8.1 mph - N/A   Unknown
9:59 AM 75.2 °F - 60.4 °F 60% 30.01 in 10.0 mi NNW 8.1 mph - N/A   Unknown
10:55 AM 78.3 °F - 57.9 °F 49% 30.01 in 10.0 mi NW 9.2 mph - N/A   Clear
10:57 AM 78.3 °F - 57.9 °F 49% 30.00 in 10.0 mi NW 9.2 mph - N/A   Clear
11:55 AM 79.9 °F - 57.0 °F 45% 29.99 in 10.0 mi Variable 3.5 mph - N/A   Clear
11:56 AM 79.9 °F - 57.0 °F 45% 29.99 in 10.0 mi NW 4.6 mph - N/A   Clear
12:04 PM 80.6 °F 80.8 °F 57.2 °F 45% 29.99 in 10.0 mi WNW 8.1 mph - N/A Rain Light Rain
12:07 PM 80.6 °F 80.8 °F 57.2 °F 45% 29.99 in 10.0 mi NW 6.9 mph - N/A   Clear
12:55 PM 81.1 °F 81.8 °F 60.1 °F 49% 29.97 in 10.0 mi SW 10.4 mph - 0.00 in   Clear
12:56 PM 81.1 °F 81.8 °F 60.1 °F 49% 29.97 in 10.0 mi SW 10.4 mph - N/A   Clear
2:55 PM 79.5 °F - 61.5 °F 54% 29.94 in 10.0 mi SW 11.5 mph - N/A   Clear
2:56 PM 78.8 °F - 62.6 °F 57% 29.93 in 10.0 mi WSW 10.4 mph - N/A   Partly Cloudy
3:55 PM 77.4 °F - 63.9 °F 63% 29.93 in 10.0 mi SW 11.5 mph - N/A   Clear
4:55 PM 75.9 °F - 64.4 °F 67% 29.92 in 10.0 mi SW 10.4 mph - N/A   Clear
4:58 PM 75.2 °F - 64.4 °F 69% 29.92 in 10.0 mi SW 9.2 mph - N/A   Partly Cloudy
5:55 PM 73.9 °F - 64.8 °F 73% 29.93 in 10.0 mi WSW 6.9 mph - N/A   Clear
6:55 PM 73.0 °F - 63.7 °F 72% 29.93 in 10.0 mi WSW 6.9 mph - N/A   Clear
7:55 PM 72.9 °F - 62.8 °F 71% 29.94 in 10.0 mi WSW 8.1 mph - N/A   Clear
8:55 PM 72.7 °F - 63.3 °F 72% 29.94 in 10.0 mi West 4.6 mph - N/A   Clear
9:55 PM 70.2 °F - 63.1 °F 78% 29.97 in 10.0 mi WNW 5.8 mph - N/A   Clear
9:57 PM 69.8 °F - 62.6 °F 78% 29.96 in 10.0 mi WNW 5.8 mph - N/A   Clear
10:55 PM 70.0 °F - 61.7 °F 75% 29.98 in 10.0 mi WNW 6.9 mph - N/A   Clear
11:55 PM 68.9 °F - 61.3 °F 77% 29.97 in 10.0 mi WNW 4.6 mph - N/A   Clear